GW3397 Weather Reports


Display with metric or nautical units.
time (UTC)temp
F
wind
direction
speed
MPH
gust
MPH
rain 1hr
in
rain 24hr
in
rain mn
in
humidity
%
barometer
mb
20260510181301 60 293 6.0 8.0 0.00 0.02 0.02 52 1017.0
20260510180756 61 358 4.0 9.0 0.00 0.02 0.02 58 1017.1
20260510180254 60 255 7.0 8.0 0.00 0.02 0.02 52 1017.1
20260510175750 60 274 7.0 11.0 0.00 0.02 0.02 49 1016.9
20260510175246 60 337 8.0 10.0 0.00 0.02 0.02 58 1017.2
20260510174743 59 315 6.0 7.0 0.00 0.02 0.02 57 1017.1
20260510174241 60 291 7.0 11.0 0.00 0.02 0.02 56 1017.2
20260510173737 59 289 1.0 5.0 0.00 0.02 0.02 64 1017.2
20260510173232 59 346 2.0 3.0 0.00 0.02 0.02 61 1017.3
20260510172728 57 285 2.0 2.0 0.00 0.02 0.02 60 1017.2
20260510172224 57 326 6.0 7.0 0.00 0.02 0.02 61 1017.6
20260510171721 57 285 7.0 10.0 0.00 0.02 0.02 59 1017.2
20260510171219 58 305 9.0 10.0 0.00 0.02 0.02 59 1017.2
20260510170716 58 328 5.0 9.0 0.00 0.02 0.02 63 1017.0
20260510170211 58 340 6.0 11.0 0.00 0.02 0.02 60 1017.0
20260510165708 57 308 2.0 7.0 0.00 0.02 0.02 64 1017.1
20260510165204 56 296 8.0 13.0 0.00 0.02 0.02 62 1017.1
20260510164701 56 310 6.0 8.0 0.00 0.02 0.02 67 1017.0
20260510164159 57 308 8.0 10.0 0.00 0.02 0.02 67 1017.0
20260510163658 57 315 9.0 13.0 0.00 0.02 0.02 65 1017.1
20260510163155 56 338 5.0 10.0 0.00 0.02 0.02 69 1017.3
20260510162654 55 297 7.0 8.0 0.00 0.02 0.02 69 1017.2
20260510162152 55 276 6.0 8.0 0.00 0.02 0.02 70 1017.2
20260510161647 54 316 2.0 7.0 0.00 0.02 0.02 76 1017.4
20260510161144 54 285 3.0 5.0 0.00 0.02 0.02 78 1017.4
20260510160641 53 269 4.0 6.0 0.00 0.02 0.02 78 1017.4
20260510160136 53 215 2.0 5.0 0.00 0.02 0.02 82 1017.4
20260510155632 52 287 3.0 6.0 0.00 0.02 0.02 80 1017.3
20260510155128 53 293 4.0 8.0 0.00 0.02 0.02 81 1017.4
20260510154624 53 314 3.0 6.0 0.00 0.02 0.02 81 1017.3
20260510154120 53 297 3.0 6.0 0.00 0.02 0.02 80 1017.4
20260510153615 52 271 2.0 5.0 0.00 0.02 0.02 82 1017.2
20260510153112 51 308 2.0 6.0 0.00 0.02 0.02 83 1017.2
20260510152609 50 305 3.0 7.0 0.00 0.02 0.02 82 1017.3
20260510152105 50 278 6.0 8.0 0.00 0.02 0.02 83 1017.6
20260510151602 50 276 4.0 8.0 0.00 0.02 0.02 83 1017.3
20260510151100 50 258 6.0 8.0 0.00 0.02 0.02 83 1017.4
20260510150559 50 271 6.0 7.0 0.00 0.02 0.02 85 1017.3
20260510150055 49 263 2.0 6.0 0.00 0.02 0.02 86 1017.4
20260510145552 49 266 5.0 7.0 0.00 0.02 0.02 86 1017.0
20260510145049 49 299 3.0 5.0 0.00 0.02 0.02 87 1017.1
20260510144545 49 287 2.0 3.0 0.00 0.02 0.02 87 1017.1
20260510144041 49 328 2.0 6.0 0.00 0.02 0.02 87 1017.0
20260510143537 49 337 2.0 8.0 0.00 0.02 0.02 88 1017.1
20260510143034 49 257 2.0 5.0 0.00 0.02 0.02 89 1016.9
20260510142530 48 252 3.0 5.0 0.00 0.02 0.02 89 1016.8
20260510142027 48 280 0.0 5.0 0.00 0.02 0.02 89 1016.8
20260510141523 48 281 4.0 5.0 0.00 0.02 0.02 88 1016.4
20260510141021 48 301 2.0 7.0 0.00 0.02 0.02 87 1016.7
20260510140518 48 352 4.0 6.0 0.00 0.02 0.02 88 1016.0
20260510140017 48 312 3.0 7.0 0.00 0.02 0.02 89 1016.3
20260510135513 48 278 12.0 15.0 0.00 0.02 0.02 89 1016.5
20260510135009 48 293 5.0 10.0 0.00 0.02 0.02 89 1016.4
20260510134507 48 276 5.0 9.0 0.00 0.02 0.02 89 1016.3
20260510134003 48 305 5.0 14.0 0.00 0.02 0.02 89 1016.4
20260510133459 48 266 9.0 13.0 0.00 0.02 0.02 89 1016.3
20260510132955 48 299 7.0 9.0 0.00 0.02 0.02 92 1016.1
20260510132452 48 296 4.0 9.0 0.00 0.02 0.02 95 1016.0
20260510131949 48 301 6.0 13.0 0.00 0.02 0.02 97 1016.0
20260510131447 48 320 7.0 14.0 0.00 0.02 0.02 98 1015.7
20260510130944 50 317 9.0 16.0 0.00 0.02 0.02 98 1016.0
20260510130440 51 359 3.0 3.0 0.00 0.02 0.02 98 1015.7
20260510125938 51 354 1.0 1.0 0.00 0.02 0.02 98 1015.4
20260510125434 50 346 0.0 0.0 0.00 0.02 0.02 98 1015.0
20260510124930 50 327 0.0 2.0 0.00 0.02 0.02 98 1014.9
20260510124427 50 298 3.0 5.0 0.00 0.02 0.02 98 1015.4
20260510123924 50 307 6.0 7.0 0.00 0.02 0.02 98 1015.3
20260510123420 50 319 0.0 0.0 0.00 0.02 0.02 98 1015.0
20260510122916 50 333 0.0 0.0 0.00 0.02 0.02 98 1014.9
20260510122411 50 332 0.0 1.0 0.00 0.02 0.02 98 1014.7
20260510121907 50 351 0.0 1.0 0.00 0.02 0.02 98 1014.6
20260510121405 50 335 0.0 0.0 0.00 0.02 0.02 98 1014.6
20260510120903 50 359 0.0 0.0 0.00 0.02 0.02 98 1014.5
20260510120359 50 350 0.0 0.0 0.00 0.02 0.02 98 1014.7
20260510115855 50 21 0.0 0.0 0.00 0.02 0.02 98 1014.3
20260510115352 50 9 0.0 0.0 0.00 0.02 0.02 98 1014.2
20260510114847 49 17 0.0 0.0 0.00 0.02 0.02 98 1014.3
20260510114346 49 3 0.0 0.0 0.00 0.02 0.02 98 1014.4
20260510113845 49 6 0.0 0.0 0.00 0.02 0.02 98 1014.1
20260510113341 49 356 0.0 0.0 0.00 0.02 0.02 98 1014.4
20260510112838 49 21 0.0 1.0 0.00 0.02 0.02 98 1014.1
20260510112336 50 28 2.0 3.0 0.00 0.02 0.02 98 1014.1
20260510111831 50 10 0.0 0.0 0.00 0.02 0.02 98 1013.9
20260510111328 50 15 0.0 0.0 0.00 0.02 0.02 98 1013.6
20260510110828 50 341 0.0 0.0 0.00 0.02 0.02 98 1013.9
20260510110326 49 34 0.0 0.0 0.00 0.02 0.02 98 1013.6
20260510105822 49 43 0.0 0.0 0.00 0.02 0.02 98 1013.6
20260510105321 49 5 0.0 0.0 0.00 0.02 0.02 98 1013.5
20260510104818 49 353 0.0 0.0 0.00 0.02 0.02 98 1013.4
20260510104315 49 356 0.0 0.0 0.00 0.02 0.02 98 1013.4
20260510103812 49 15 0.0 0.0 0.00 0.02 0.02 98 1013.5
20260510103309 49 348 0.0 0.0 0.00 0.02 0.02 98 1013.3
20260510102804 49 0 0.0 0.0 0.00 0.02 0.02 98 1013.3
20260510102300 48 108 2.0 2.0 0.00 0.02 0.02 98 1013.2
20260510101757 48 112 0.0 0.0 0.00 0.02 0.02 98 1013.1
20260510101256 48 3 0.0 0.0 0.00 0.02 0.02 98 1012.9
20260510100751 48 89 0.0 0.0 0.00 0.02 0.02 98 1013.1
20260510100249 48 78 0.0 0.0 0.00 0.02 0.02 98 1013.0
20260510095744 48 218 1.0 1.0 0.00 0.02 0.02 98 1012.9
20260510095240 48 225 2.0 2.0 0.00 0.02 0.02 98 1013.0
20260510094738 48 272 0.0 0.0 0.00 0.02 0.02 98 1012.9
20260510094234 47 185 0.0 0.0 0.00 0.02 0.02 98 1012.7
20260510093730 48 297 0.0 0.0 0.00 0.02 0.02 98 1012.6
20260510093228 48 341 0.0 2.0 0.00 0.02 0.02 98 1012.6
20260510092724 48 209 2.0 2.0 0.00 0.02 0.02 98 1012.6
20260510092220 48 306 0.0 0.0 0.00 0.02 0.02 98 1012.4
20260510091716 48 284 0.0 0.0 0.00 0.02 0.02 98 1012.4
20260510091212 48 331 0.0 0.0 0.00 0.02 0.02 97 1012.4
20260510090709 47 327 0.0 0.0 0.00 0.02 0.02 97 1012.2
20260510090206 47 66 1.0 1.0 0.00 0.02 0.02 97 1012.3
20260510085701 47 261 1.0 1.0 0.00 0.02 0.02 97 1012.3
20260510085156 48 18 0.0 1.0 0.00 0.02 0.02 97 1012.2
20260510084652 48 5 0.0 0.0 0.00 0.02 0.02 97 1012.2
20260510084149 48 142 1.0 1.0 0.00 0.02 0.02 97 1012.1
20260510083645 48 353 0.0 0.0 0.00 0.02 0.02 97 1012.4
20260510083142 48 318 0.0 0.0 0.00 0.02 0.02 97 1012.5
20260510082638 48 318 0.0 1.0 0.00 0.02 0.02 97 1012.2
20260510082134 48 169 2.0 2.0 0.00 0.02 0.02 97 1011.9
20260510081629 49 10 0.0 2.0 0.00 0.02 0.02 97 1012.1
20260510081125 49 317 1.0 1.0 0.00 0.02 0.02 96 1011.9
20260510080619 49 143 2.0 2.0 0.00 0.02 0.02 97 1011.8
20260510080116 49 81 1.0 1.0 0.00 0.02 0.02 96 1011.9
20260510075613 49 42 1.0 3.0 0.00 0.02 0.02 96 1011.9
20260510075110 50 60 2.0 2.0 0.00 0.02 0.02 96 1011.8
20260510074602 50 286 2.0 2.0 0.00 0.02 0.02 96 1012.1
20260510074057 50 257 2.0 2.0 0.00 0.02 0.02 96 1012.3
20260510073554 50 82 2.0 2.0 0.00 0.02 0.02 96 1012.0
20260510073051 50 33 2.0 3.0 0.00 0.02 0.02 96 1012.2
20260510072547 50 343 0.0 1.0 0.00 0.02 0.02 95 1012.2
20260510072043 50 46 0.0 1.0 0.00 0.02 0.02 95 1012.0
20260510071539 50 77 0.0 5.0 0.05 0.02 0.02 95 1011.8
20260510071038 51 61 0.0 2.0 0.05 0.02 0.02 95 1011.7
20260510070534 51 359 1.0 2.0 0.00 0.01 0.01 94 1012.1
20260510070031 51 346 1.0 2.0 0.00 0.01 0.01 94 1012.0
20260510065527 51 73 1.0 2.0 0.00 0.01 0.01 94 1011.5
20260510065023 51 225 0.0 5.0 0.00 0.01 0.01 94 1011.8
20260510064520 51 140 3.0 5.0 0.00 0.01 0.01 95 1011.8
20260510064017 51 176 3.0 6.0 0.00 0.01 0.01 95 1012.0
20260510063514 51 172 5.0 7.0 0.00 0.01 0.01 95 1012.3
20260510063011 51 166 3.0 5.0 0.00 0.01 0.01 96 1012.2
20260510062507 51 165 3.0 3.0 0.00 0.01 0.01 96 1012.3
20260510062002 50 161 1.0 2.0 0.00 0.01 0.01 96 1012.1
20260510061459 51 130 2.0 3.0 0.00 0.01 0.01 96 1012.4
20260510060955 50 133 2.0 2.0 0.00 0.01 0.01 96 1012.7
20260510060452 51 138 2.0 2.0 0.00 0.01 0.01 96 1012.8
20260510055948 51 146 2.0 2.0 0.07 0.01 0.01 97 1012.9
20260510055444 50 73 2.0 2.0 0.07 0.01 0.01 97 1013.1
20260510054943 50 346 0.0 0.0 0.00 0.00 0.00 97 1013.3
20260510054437 50 1 0.0 1.0 0.00 0.00 0.00 97 1013.5
20260510053932 50 346 0.0 0.0 0.00 0.00 0.00 97 1013.4
20260510053428 50 332 0.0 0.0 0.00 0.00 0.00 97 1013.5
20260510052925 50 252 1.0 1.0 0.00 0.00 0.00 97 1013.4
20260510052421 50 299 0.0 0.0 0.00 0.00 0.00 96 1013.2
20260510051917 49 310 0.0 1.0 0.00 0.00 0.00 96 1013.4
20260510051414 49 309 1.0 3.0 0.00 0.00 0.00 96 1013.4
20260510050910 49 283 4.0 7.0 0.00 0.00 0.00 96 1013.3
20260510050407 49 281 5.0 6.0 0.00 0.00 0.00 96 1013.3
20260510045904 49 322 0.0 0.0 0.00 0.00 0.00 95 1012.6
20260510045401 49 308 1.0 1.0 0.00 0.00 0.00 95 1012.7
20260510044858 49 326 1.0 1.0 0.00 0.00 0.00 95 1012.5
20260510044355 49 304 2.0 2.0 0.00 0.00 0.00 94 1012.3
20260510043851 50 321 1.0 1.0 0.00 0.00 0.00 94 1012.3
20260510043347 50 288 1.0 1.0 0.00 0.00 0.00 94 1012.1
20260510042845 51 193 1.0 1.0 0.00 0.00 0.00 94 1012.3
20260510042341 51 112 1.0 2.0 0.00 0.00 0.00 94 1012.1
20260510041837 50 148 2.0 2.0 0.00 0.00 0.00 94 1012.1
20260510041335 50 33 0.0 1.0 0.00 0.00 0.00 94 1012.2
20260510040832 51 122 3.0 3.0 0.00 0.00 0.00 94 1012.0
20260510040328 51 116 3.0 5.0 0.00 0.00 0.00 95 1011.9
20260510035824 51 141 3.0 3.0 0.00 0.23 0.23 95 1012.1
20260510035320 50 146 2.0 5.0 0.00 0.23 0.23 95 1012.0
20260510034816 50 167 2.0 3.0 0.00 0.23 0.23 96 1012.1
20260510034314 50 163 2.0 2.0 0.00 0.23 0.23 97 1012.0
20260510033810 50 146 3.0 3.0 0.00 0.23 0.23 97 1012.2
20260510033307 49 135 3.0 5.0 0.00 0.23 0.23 97 1012.1
20260510032804 49 343 0.0 0.0 0.00 0.23 0.23 97 1012.0
20260510032300 50 331 0.0 0.0 0.00 0.23 0.23 97 1012.1
20260510031756 50 204 1.0 3.0 0.00 0.23 0.23 98 1012.0
20260510031252 50 147 1.0 3.0 0.00 0.23 0.23 98 1011.8
20260510030750 50 136 2.0 5.0 0.00 0.23 0.23 98 1012.0
20260510030243 50 159 2.0 3.0 0.00 0.23 0.23 98 1011.8
20260510025740 49 159 1.0 2.0 0.00 0.23 0.23 98 1011.9
20260510025238 50 117 3.0 5.0 0.00 0.23 0.23 98 1011.6
20260510024734 49 114 0.0 0.0 0.00 0.23 0.23 98 1011.6
20260510024230 49 69 0.0 0.0 0.00 0.23 0.23 98 1011.9
20260510023726 49 265 0.0 0.0 0.00 0.23 0.23 98 1011.6
20260510023223 49 348 0.0 0.0 0.00 0.23 0.23 98 1011.8
20260510022719 49 27 0.0 0.0 0.00 0.23 0.23 98 1012.1
20260510022214 49 350 0.0 0.0 0.00 0.23 0.23 98 1012.2
20260510021709 49 320 1.0 1.0 0.00 0.23 0.23 98 1012.2
20260510021207 49 331 0.0 1.0 0.00 0.23 0.23 98 1012.2
20260510020702 50 305 0.0 0.0 0.00 0.23 0.23 98 1012.2
20260510020157 50 132 1.0 2.0 0.00 0.23 0.23 98 1012.1
20260510015653 50 118 3.0 5.0 0.00 0.23 0.23 98 1011.9
20260510015150 50 138 3.0 3.0 0.00 0.23 0.23 98 1011.7
20260510014649 50 132 3.0 5.0 0.00 0.23 0.23 98 1011.7
20260510014147 50 141 3.0 7.0 0.00 0.23 0.23 98 1011.5
20260510013642 51 136 5.0 7.0 0.00 0.23 0.23 98 1011.6
20260510013138 51 118 5.0 7.0 0.00 0.23 0.23 98 1011.5
20260510012638 51 134 6.0 8.0 0.00 0.23 0.23 98 1011.9
20260510012134 51 133 5.0 7.0 0.00 0.23 0.23 98 1011.9
20260510011629 51 107 5.0 8.0 0.00 0.23 0.23 98 1012.0
20260510011125 51 126 5.0 8.0 0.00 0.23 0.23 98 1011.7
20260510010621 50 137 7.0 8.0 0.00 0.23 0.23 98 1011.6
20260510010119 50 116 6.0 7.0 0.00 0.23 0.23 98 1011.6
20260510005614 50 113 7.0 10.0 0.00 0.23 0.23 98 1011.6
20260510005112 50 119 5.0 8.0 0.00 0.23 0.23 98 1011.6
20260510004610 50 128 6.0 10.0 0.00 0.23 0.23 98 1011.4
20260510004107 50 156 7.0 8.0 0.00 0.23 0.23 98 1011.8
20260510003604 50 112 5.0 7.0 0.00 0.23 0.23 98 1011.7
20260510003100 50 129 3.0 6.0 0.00 0.23 0.23 98 1011.6
20260510002554 50 91 4.0 7.0 0.00 0.23 0.23 98 1011.4
20260510002051 50 73 2.0 3.0 0.00 0.23 0.23 98 1011.5
20260510001548 50 107 1.0 3.0 0.00 0.23 0.23 98 1011.4
20260510001047 50 97 4.0 5.0 0.00 0.23 0.23 98 1011.6
20260510000542 50 86 1.0 3.0 0.00 0.23 0.23 98 1011.3
20260510000039 51 127 2.0 3.0 0.00 0.23 0.23 98 1011.5
20260509235536 51 88 3.0 5.0 0.00 0.23 0.23 98 1011.3
20260509235033 51 83 2.0 5.0 0.00 0.23 0.23 98 1011.5
20260509234529 51 92 2.0 5.0 0.00 0.23 0.23 98 1011.5
20260509234027 51 69 3.0 3.0 0.00 0.23 0.23 98 1011.3
20260509233524 51 88 3.0 3.0 0.00 0.23 0.23 98 1011.3
20260509233021 51 58 1.0 3.0 0.00 0.23 0.23 98 1011.2
20260509232518 51 75 2.0 3.0 0.00 0.23 0.23 98 1011.0
20260509232015 51 91 2.0 5.0 0.00 0.23 0.23 98 1011.3
20260509231511 51 82 4.0 6.0 0.00 0.23 0.23 98 1011.0
20260509231009 51 99 3.0 5.0 0.00 0.23 0.23 98 1011.1
20260509230505 51 93 3.0 3.0 0.00 0.23 0.23 98 1011.0
20260509230003 51 85 3.0 6.0 0.00 0.23 0.23 98 1010.8
20260509225458 51 66 2.0 3.0 0.00 0.23 0.23 98 1011.0
20260509224954 51 120 3.0 6.0 0.00 0.23 0.23 98 1011.1
20260509224449 51 62 2.0 3.0 0.00 0.23 0.23 98 1011.0
20260509223946 51 72 2.0 5.0 0.00 0.23 0.23 98 1011.1
20260509223443 51 64 2.0 5.0 0.00 0.23 0.23 98 1011.0
20260509222941 51 66 3.0 6.0 0.00 0.23 0.23 98 1011.1
20260509222436 51 59 2.0 5.0 0.00 0.23 0.23 98 1010.9
20260509221932 52 39 2.0 5.0 0.00 0.23 0.23 98 1010.9
20260509221429 52 95 2.0 3.0 0.00 0.23 0.23 98 1011.0
20260509220924 52 70 2.0 3.0 0.00 0.23 0.23 98 1010.9
20260509220420 52 100 2.0 6.0 0.00 0.23 0.23 98 1011.1
20260509215917 52 137 6.0 7.0 0.00 0.23 0.23 98 1010.9
20260509215412 51 115 7.0 8.0 0.00 0.23 0.23 98 1010.9
20260509214910 51 121 3.0 5.0 0.00 0.23 0.23 98 1011.1
20260509214407 51 115 4.0 5.0 0.00 0.23 0.23 98 1011.4
20260509213904 51 77 2.0 5.0 0.00 0.23 0.23 98 1011.3
20260509213359 51 147 4.0 6.0 0.00 0.23 0.23 98 1011.3
20260509212857 51 67 2.0 7.0 0.00 0.23 0.23 98 1011.2
20260509212354 51 55 4.0 6.0 0.00 0.23 0.23 98 1011.3
20260509211850 51 105 3.0 3.0 0.00 0.23 0.23 98 1011.5
20260509211341 51 119 2.0 6.0 0.00 0.23 0.23 98 1011.3
20260509210837 51 114 3.0 5.0 0.00 0.23 0.23 98 1011.6
20260509210335 51 114 2.0 6.0 0.00 0.23 0.23 98 1011.6
20260509205834 51 111 7.0 8.0 0.00 0.23 0.23 98 1011.6
20260509205329 51 83 3.0 7.0 0.00 0.23 0.23 98 1011.5
20260509204826 51 102 6.0 7.0 0.00 0.23 0.23 98 1011.7
20260509204322 51 87 5.0 7.0 0.00 0.23 0.23 98 1011.7
20260509203819 51 94 5.0 7.0 0.00 0.23 0.23 98 1011.7
20260509203316 51 127 3.0 8.0 0.00 0.23 0.23 98 1011.6
20260509202812 51 134 5.0 7.0 0.00 0.23 0.23 98 1011.7
20260509202309 51 74 4.0 6.0 0.00 0.23 0.23 98 1011.8
20260509201808 50 113 1.0 7.0 0.00 0.23 0.23 98 1011.8
20260509201305 51 79 2.0 5.0 0.00 0.23 0.23 98 1011.8
20260509200801 51 89 3.0 5.0 0.00 0.23 0.23 98 1011.8
20260509200256 51 134 3.0 5.0 0.00 0.23 0.23 98 1011.8
20260509195752 50 36 2.0 3.0 0.00 0.23 0.23 98 1012.0
20260509195247 50 74 3.0 5.0 0.00 0.23 0.23 97 1012.0
20260509194742 50 110 2.0 3.0 0.00 0.23 0.23 97 1012.3
20260509194239 50 59 3.0 3.0 0.00 0.23 0.23 97 1012.1
20260509193736 50 58 1.0 5.0 0.07 0.23 0.23 97 1012.4
20260509193235 50 101 4.0 5.0 0.00 0.22 0.22 97 1012.3
20260509192732 50 89 3.0 5.0 0.00 0.22 0.22 97 1012.3
20260509192227 50 61 3.0 5.0 0.00 0.22 0.22 97 1012.6
20260509191723 50 67 3.0 5.0 0.00 0.22 0.22 97 1012.5
20260509191219 50 68 3.0 3.0 0.00 0.22 0.22 97 1012.5
20260509190715 50 50 2.0 7.0 0.00 0.22 0.22 97 1012.4
20260509190213 51 86 1.0 3.0 0.00 0.22 0.22 97 1012.3
20260509185710 50 110 4.0 6.0 0.00 0.22 0.22 97 1012.5
20260509185206 50 126 5.0 7.0 0.00 0.22 0.22 97 1012.5
20260509184704 51 53 1.0 7.0 0.00 0.22 0.22 97 1012.3
20260509184201 50 126 4.0 6.0 0.00 0.22 0.22 97 1012.4
20260509183657 50 132 7.0 8.0 0.00 0.22 0.22 97 1012.6
20260509183152 50 110 4.0 8.0 0.00 0.22 0.22 97 1012.5
20260509182648 50 112 3.0 7.0 0.00 0.22 0.22 97 1012.7
20260509182146 50 98 2.0 6.0 0.00 0.22 0.22 97 1012.5